Location: B?dargowo
(53.3916°N, 14.4413°E)
Time: 05:17:36
(UTC+00:00)

Resurs 01 Rocket - Pass Details

Date: 05 February 2023
Orbit: 632 x 643 km, 97.9° (Epoch: 24 March)

Event Time Altitude Azimuth Distance (km) Brightness Sun altitude
Exits shadow 18:08:00 19° 24° (NNE) 1,543 3.4 -20.3°
Drops below altitude 10° 18:09:44 10° 6° (N) 2,055 4.2 -20.6°
Sets 18:12:14 0° 353° (N) 2,970 5.2 -21.0°
